#�ϑ�����,���ϕ���,���ϕ���,�ő啗��,�ő啗����������,�ő�u�ԕ���,�ő�u�ԕ�����������
#(�N����),(m/s)   ,(16����),(m/s)   ,(16����)        ,(m/s)       ,(16����)            
2013/6/26 0:01,1.9,3,1.9,3,2,3
2013/6/26 0:02,1.7,3,1.8,3,2.1,3
2013/6/26 0:03,1.6,3,1.7,3,1.4,4
2013/6/26 0:04,1.6,3,1.6,3,2,3
2013/6/26 0:05,1.5,3,1.5,3,2.6,2
2013/6/26 0:06,1.5,3,1.5,3,2.2,3
2013/6/26 0:07,1.4,3,1.5,3,1.3,1
2013/6/26 0:08,1.4,3,1.4,3,1.5,3
2013/6/26 0:09,1.3,3,1.4,3,2,2
2013/6/26 0:10,1.2,3,1.3,3,1.9,3
2013/6/26 0:11,1.3,3,1.3,3,2.2,3
2013/6/26 0:12,1.2,2,1.2,3,1.8,2
2013/6/26 0:13,1.3,2,1.3,3,2.5,3
2013/6/26 0:14,1.3,2,1.3,3,2.5,3
2013/6/26 0:15,1.3,2,1.3,3,1.8,3
2013/6/26 0:16,1.3,2,1.3,3,1.8,3
2013/6/26 0:17,1.3,3,1.3,3,2.2,3
2013/6/26 0:18,1.3,2,1.3,3,1.6,3
2013/6/26 0:19,1.4,2,1.4,2,2.5,3
2013/6/26 0:20,1.4,2,1.4,2,2.4,3
2013/6/26 0:21,1.4,2,1.4,2,2.9,3
2013/6/26 0:22,1.5,3,1.5,2,3,3
2013/6/26 0:23,1.6,2,1.6,3,3.7,2
2013/6/26 0:24,1.6,2,1.6,3,3.1,2
2013/6/26 0:25,1.7,2,1.7,2,2.5,2
2013/6/26 0:26,1.8,2,1.8,2,2.5,3
2013/6/26 0:27,1.9,3,1.9,3,3,4
2013/6/26 0:28,2,3,2,3,3.2,3
2013/6/26 0:29,2.1,3,2.1,3,2.5,3
2013/6/26 0:30,2,3,2.1,3,2.2,3
2013/6/26 0:31,2,3,2,3,2.2,3
2013/6/26 0:32,2,3,2,3,2.6,3
2013/6/26 0:33,1.9,3,2,3,2,4
2013/6/26 0:34,1.8,3,1.9,3,1.6,3
2013/6/26 0:35,1.6,3,1.7,3,1.4,3
2013/6/26 0:36,1.5,3,1.6,3,2,4
2013/6/26 0:37,1.4,3,1.5,3,1.9,3
2013/6/26 0:38,1.3,3,1.4,3,1.3,3
2013/6/26 0:39,1.1,3,1.2,3,1.3,5
2013/6/26 0:40,1.1,3,1.1,3,1.3,2
2013/6/26 0:41,1.1,3,1.1,3,1.5,3
2013/6/26 0:42,1,3,1,3,1.4,3
2013/6/26 0:43,0.9,3,0.9,3,1,4
2013/6/26 0:44,0.9,3,0.9,3,2.4,3
2013/6/26 0:45,1,3,1,3,2,2
2013/6/26 0:46,1,3,1,3,2.2,3
2013/6/26 0:47,1,3,1,3,2.4,3
2013/6/26 0:48,1,3,1,3,1.4,2
2013/6/26 0:49,1,2,1,3,1.6,2
2013/6/26 0:50,1,3,1,3,0.8,16
2013/6/26 0:51,1.1,3,1.1,3,2.5,3
2013/6/26 0:52,1.1,3,1.1,3,2.5,3
2013/6/26 0:53,1.3,3,1.3,3,2.4,3
2013/6/26 0:54,1.3,3,1.3,3,3.9,5
2013/6/26 0:55,1.4,3,1.4,3,3.5,6
2013/6/26 0:56,1.4,4,1.4,3,2.2,4
2013/6/26 0:57,1.5,4,1.5,4,2.9,4
2013/6/26 0:58,1.5,3,1.5,4,2.1,2
2013/6/26 0:59,1.6,4,1.6,4,2.5,4
2013/6/26 1:00,1.7,4,1.7,4,3.2,5
2013/6/26 1:01,1.7,4,1.8,4,2.2,5
2013/6/26 1:02,1.7,4,1.7,4,2,2
2013/6/26 1:03,1.6,4,1.7,4,1.8,4
2013/6/26 1:04,1.6,3,1.6,4,2.2,2
2013/6/26 1:05,1.6,3,1.6,4,3.1,3
2013/6/26 1:06,1.6,3,1.6,4,2.2,3
2013/6/26 1:07,1.5,3,1.6,4,2.2,3
2013/6/26 1:08,1.6,3,1.6,4,2.4,1
2013/6/26 1:09,1.6,3,1.6,4,2.6,2
2013/6/26 1:10,1.6,2,1.6,4,2.7,2
2013/6/26 1:11,1.6,2,1.6,4,2.9,4
2013/6/26 1:12,1.7,2,1.7,4,3,3
2013/6/26 1:13,1.8,3,1.8,2,3.1,4
2013/6/26 1:14,1.8,3,1.8,2,2.7,4
2013/6/26 1:15,1.8,3,1.8,2,3.3,3
2013/6/26 1:16,1.8,3,1.8,2,3,3
2013/6/26 1:17,1.8,3,1.9,3,2,2
2013/6/26 1:18,1.8,3,1.8,3,1.8,1
2013/6/26 1:19,1.8,3,1.8,3,2.5,3
2013/6/26 1:20,1.8,3,1.8,3,2.9,3
2013/6/26 1:21,1.8,3,1.8,3,2.9,3
2013/6/26 1:22,1.8,3,1.8,3,2.7,3
2013/6/26 1:23,1.8,3,1.8,3,3.1,2
2013/6/26 1:24,1.8,3,1.8,3,2.5,3
2013/6/26 1:25,1.8,3,1.8,3,2.6,3
2013/6/26 1:26,1.8,3,1.8,3,2.7,3
2013/6/26 1:27,1.8,3,1.8,3,3.9,3
2013/6/26 1:28,1.9,3,1.9,3,3.1,4
2013/6/26 1:29,1.9,3,2,3,2,4
2013/6/26 1:30,1.9,3,1.9,3,2.2,4
2013/6/26 1:31,1.9,3,1.9,3,3.3,1
2013/6/26 1:32,2,3,2,3,3.6,3
2013/6/26 1:33,2,3,2,3,3.3,3
2013/6/26 1:34,2,3,2,3,2.6,3
2013/6/26 1:35,2,3,2,3,3.6,4
2013/6/26 1:36,1.9,3,2,3,2,1
2013/6/26 1:37,1.8,3,1.9,3,2.9,4
2013/6/26 1:38,1.8,3,1.9,3,2.7,4
2013/6/26 1:39,1.9,3,1.9,3,3.7,3
2013/6/26 1:40,2.1,3,2.1,3,3.5,3
2013/6/26 1:41,2.1,3,2.1,3,3.8,3
2013/6/26 1:42,1.9,2,2.1,3,2.5,3
2013/6/26 1:43,1.8,2,1.9,3,2,2
2013/6/26 1:44,1.9,2,1.9,3,3.2,2
2013/6/26 1:45,1.8,2,1.9,3,2.7,1
2013/6/26 1:46,1.9,2,1.9,3,3,3
2013/6/26 1:47,2,2,2,3,3.1,3
2013/6/26 1:48,2.1,2,2.1,3,3.6,3
2013/6/26 1:49,2.1,3,2.1,3,3.6,3
2013/6/26 1:50,1.9,3,2.1,3,2.5,3
2013/6/26 1:51,1.9,3,1.9,3,2.9,3
2013/6/26 1:52,2,3,2,2,3.7,3
2013/6/26 1:53,2.1,3,2.1,2,3.1,3
2013/6/26 1:54,2,3,2.1,2,2.2,2
2013/6/26 1:55,2,3,2.1,2,3.1,4
2013/6/26 1:56,2,3,2,2,2.4,2
2013/6/26 1:57,1.9,3,2,2,2.9,3
2013/6/26 1:58,1.8,2,1.9,3,2.4,2
2013/6/26 1:59,1.6,2,1.8,3,1.8,1
2013/6/26 2:00,1.6,2,1.6,3,2.9,3
2013/6/26 2:01,1.7,2,1.7,3,3.7,3
2013/6/26 2:02,1.7,2,1.8,3,2.5,2
2013/6/26 2:03,1.6,2,1.7,3,2.4,4
2013/6/26 2:04,1.6,2,1.6,3,1.5,2
2013/6/26 2:05,1.5,2,1.6,3,1.4,3
2013/6/26 2:06,1.5,2,1.6,3,2.7,3
2013/6/26 2:07,1.6,2,1.6,3,3.5,3
2013/6/26 2:08,1.7,3,1.7,2,3.6,4
2013/6/26 2:09,1.8,3,1.8,2,2.7,3
2013/6/26 2:10,1.8,3,1.8,2,2.7,3
2013/6/26 2:11,1.6,3,1.7,2,1.9,2
2013/6/26 2:12,1.6,3,1.6,3,2.7,3
2013/6/26 2:13,1.6,3,1.6,3,2.6,3
2013/6/26 2:14,1.6,3,1.6,3,1.4,2
2013/6/26 2:15,1.7,3,1.7,3,2.9,3
2013/6/26 2:16,1.7,3,1.8,3,2.7,4
2013/6/26 2:17,1.7,3,1.7,3,2.9,3
2013/6/26 2:18,1.6,3,1.7,3,2.5,3
2013/6/26 2:19,1.6,3,1.6,3,3.5,3
2013/6/26 2:20,1.7,3,1.7,3,3.5,3
2013/6/26 2:21,1.9,3,1.9,3,3.3,3
2013/6/26 2:22,1.9,3,1.9,3,3.2,2
2013/6/26 2:23,2,3,2,3,3.1,3
2013/6/26 2:24,2.1,3,2.1,3,2.4,3
2013/6/26 2:25,2.1,3,2.1,3,3.2,3
2013/6/26 2:26,2.2,3,2.2,3,3.6,2
2013/6/26 2:27,2.2,3,2.2,3,2.7,4
2013/6/26 2:28,2.3,3,2.3,3,3.6,3
2013/6/26 2:29,2.3,3,2.3,3,3,3
2013/6/26 2:30,2.2,3,2.3,3,3.3,2
2013/6/26 2:31,2.2,3,2.2,3,2.6,3
2013/6/26 2:32,2.1,3,2.2,3,2.9,4
2013/6/26 2:33,2.1,3,2.1,3,3.7,3
2013/6/26 2:34,2.2,3,2.2,3,3.6,3
2013/6/26 2:35,2.2,3,2.2,3,2.5,3
2013/6/26 2:36,2.1,3,2.2,3,4.2,3
2013/6/26 2:37,2.2,3,2.2,3,4.1,3
2013/6/26 2:38,2.2,3,2.3,3,3.1,3
2013/6/26 2:39,2.2,3,2.2,3,3.6,3
2013/6/26 2:40,2.3,3,2.3,3,3.7,3
2013/6/26 2:41,2.3,3,2.3,3,3.2,3
2013/6/26 2:42,2.3,3,2.3,3,3.2,4
2013/6/26 2:43,2.3,3,2.4,3,3.7,4
2013/6/26 2:44,2.3,3,2.4,3,3.9,3
2013/6/26 2:45,2.4,3,2.4,3,3.7,3
2013/6/26 2:46,2.4,3,2.4,3,3.6,3
2013/6/26 2:47,2.4,3,2.4,3,3.7,4
2013/6/26 2:48,2.4,3,2.4,3,3.3,4
2013/6/26 2:49,2.4,3,2.5,3,3.5,4
2013/6/26 2:50,2.4,3,2.5,3,3.2,3
2013/6/26 2:51,2.4,3,2.4,3,3.8,3
2013/6/26 2:52,2.5,3,2.5,3,3,2
2013/6/26 2:53,2.4,3,2.5,3,3.2,2
2013/6/26 2:54,2.4,3,2.4,3,3.2,3
2013/6/26 2:55,2.3,3,2.4,3,3.1,3
2013/6/26 2:56,2.2,3,2.3,3,2.4,2
2013/6/26 2:57,2.2,3,2.2,3,3.8,3
2013/6/26 2:58,2.2,3,2.2,3,3.7,3
2013/6/26 2:59,2.1,3,2.2,3,3.8,3
2013/6/26 3:00,2.1,3,2.1,3,3,3
2013/6/26 3:01,2.1,3,2.1,3,4.3,4
2013/6/26 3:02,2.2,3,2.2,3,3.6,3
2013/6/26 3:03,2.1,3,2.2,3,2.6,3
2013/6/26 3:04,2.2,3,2.2,3,3.2,3
2013/6/26 3:05,2.2,3,2.2,3,3.1,3
2013/6/26 3:06,2.3,3,2.3,3,2.6,2
2013/6/26 3:07,2.2,3,2.3,3,2.9,5
2013/6/26 3:08,2.2,3,2.2,3,2.9,3
2013/6/26 3:09,2.2,3,2.2,3,3.7,3
2013/6/26 3:10,2.2,3,2.2,3,2.7,3
2013/6/26 3:11,2.1,3,2.2,3,3,3
2013/6/26 3:12,2,3,2.1,3,2.9,3
2013/6/26 3:13,2,3,2,3,3,2
2013/6/26 3:14,2,2,2,3,3,1
2013/6/26 3:15,1.9,2,2,3,2.5,2
2013/6/26 3:16,1.9,2,1.9,3,3.5,2
2013/6/26 3:17,2,2,2,3,3.1,3
2013/6/26 3:18,1.9,2,2,3,2.6,3
2013/6/26 3:19,1.8,2,1.9,3,3,3
2013/6/26 3:20,1.9,2,1.9,3,3.6,3
2013/6/26 3:21,2,3,2,3,3.1,3
2013/6/26 3:22,2,3,2,3,2.7,3
2013/6/26 3:23,2.1,3,2.1,3,3.8,5
2013/6/26 3:24,2,3,2.1,3,3.1,4
2013/6/26 3:25,2.2,3,2.2,3,3.6,3
2013/6/26 3:26,2.2,3,2.2,3,3.5,2
2013/6/26 3:27,2.2,3,2.2,3,3.2,3
2013/6/26 3:28,2.1,3,2.2,3,2.1,4
2013/6/26 3:29,2.1,3,2.2,3,3.1,2
2013/6/26 3:30,2,3,2.2,3,3.1,3
2013/6/26 3:31,2,3,2,3,2.6,4
2013/6/26 3:32,2.1,3,2.1,3,2.7,3
2013/6/26 3:33,2.1,3,2.1,3,3.1,4
2013/6/26 3:34,2.1,3,2.1,3,3.3,3
2013/6/26 3:35,2.1,3,2.1,3,3.3,3
2013/6/26 3:36,2.1,3,2.1,3,3.2,3
2013/6/26 3:37,2.2,3,2.2,3,3.9,5
2013/6/26 3:38,2.3,3,2.3,3,4.3,5
2013/6/26 3:39,2.3,3,2.3,3,2.4,5
2013/6/26 3:40,2.3,3,2.3,3,3.1,4
2013/6/26 3:41,2.4,4,2.4,3,3.7,4
2013/6/26 3:42,2.3,4,2.4,3,2.7,4
2013/6/26 3:43,2.2,4,2.3,3,2.1,3
2013/6/26 3:44,2.2,3,2.2,3,3.1,2
2013/6/26 3:45,2.1,4,2.2,3,3.2,3
2013/6/26 3:46,2.1,4,2.1,3,2,3
2013/6/26 3:47,2,3,2,3,3.2,1
2013/6/26 3:48,2,3,2,3,3.8,3
2013/6/26 3:49,2.2,3,2.2,3,4.3,3
2013/6/26 3:50,2.2,3,2.2,3,4.9,3
2013/6/26 3:51,2.3,3,2.3,4,4.8,3
2013/6/26 3:52,2.4,3,2.4,3,4.2,3
2013/6/26 3:53,2.6,3,2.6,3,4.5,3
2013/6/26 3:54,2.7,3,2.7,3,5.1,2
2013/6/26 3:55,2.8,3,2.8,3,4.1,4
2013/6/26 3:56,3,3,3,3,5.2,3
2013/6/26 3:57,3.1,3,3.1,3,4.5,3
2013/6/26 3:58,3.2,3,3.2,3,5,4
2013/6/26 3:59,3.2,3,3.2,3,4.4,3
2013/6/26 4:00,3.1,3,3.2,3,4.2,3
2013/6/26 4:01,3.1,3,3.1,3,4.7,4
2013/6/26 4:02,3,3,3.1,3,3,4
2013/6/26 4:03,2.9,3,3,3,3.7,2
2013/6/26 4:04,2.7,3,2.8,3,3.6,3
2013/6/26 4:05,2.6,3,2.7,3,3.3,3
2013/6/26 4:06,2.4,3,2.6,3,3.3,1
2013/6/26 4:07,2.3,3,2.4,3,2.2,3
2013/6/26 4:08,2.2,3,2.3,3,4.2,3
2013/6/26 4:09,2.2,3,2.2,3,4.3,3
2013/6/26 4:10,2.3,3,2.3,3,3.8,3
2013/6/26 4:11,2.2,3,2.3,3,3,3
2013/6/26 4:12,2.2,3,2.2,3,3.3,3
2013/6/26 4:13,2.2,3,2.2,3,2.7,3
2013/6/26 4:14,2.2,3,2.2,3,3.7,2
2013/6/26 4:15,2.3,3,2.3,3,3.8,2
2013/6/26 4:16,2.3,3,2.3,3,3.2,3
2013/6/26 4:17,2.4,3,2.4,3,3.7,3
2013/6/26 4:18,2.4,3,2.4,3,3.5,3
2013/6/26 4:19,2.3,3,2.4,3,3.2,3
2013/6/26 4:20,2.2,2,2.3,3,3.1,3
2013/6/26 4:21,2.2,2,2.3,3,3.3,3
2013/6/26 4:22,2.1,2,2.2,3,3.2,3
2013/6/26 4:23,2.1,3,2.1,3,3.6,3
2013/6/26 4:24,2.2,3,2.2,3,3.5,4
2013/6/26 4:25,2,3,2.1,3,1.8,2
2013/6/26 4:26,1.9,3,2,3,2.1,3
2013/6/26 4:27,1.8,2,1.9,3,2,16
2013/6/26 4:28,1.7,2,1.8,3,2.2,2
2013/6/26 4:29,1.6,2,1.7,3,2.6,3
2013/6/26 4:30,1.5,2,1.6,2,2.4,4
2013/6/26 4:31,1.5,2,1.5,2,2,2
2013/6/26 4:32,1.5,2,1.5,3,2.2,1
2013/6/26 4:33,1.4,2,1.5,3,2.2,1
2013/6/26 4:34,1.4,2,1.4,3,2.6,16
2013/6/26 4:35,1.4,2,1.4,2,2,1
2013/6/26 4:36,1.4,1,1.4,2,1.8,1
2013/6/26 4:37,1.4,1,1.4,2,2,15
2013/6/26 4:38,1.3,1,1.4,2,1.3,14
2013/6/26 4:39,1.3,16,1.3,2,1.8,14
2013/6/26 4:40,1.2,16,1.3,2,1.4,15
2013/6/26 4:41,1.2,16,1.2,2,1.4,15
2013/6/26 4:42,1.2,16,1.2,2,1.1,16
2013/6/26 4:43,1.1,15,1.1,2,0.6,16
2013/6/26 4:44,0.9,15,1,2,0.1,15
2013/6/26 4:45,0.8,15,0.9,2,0.3,4
2013/6/26 4:46,0.7,15,0.8,1,0.5,8
2013/6/26 4:47,0.5,15,0.6,1,0.6,10
2013/6/26 4:48,0.5,14,0.5,1,0.3,7
2013/6/26 4:49,0.3,6,0.5,16,0.4,8
2013/6/26 4:50,0.3,6,0.3,16,1,5
2013/6/26 4:51,0.3,6,0.3,16,1.3,5
2013/6/26 4:52,0.4,6,0.4,16,1.3,3
2013/6/26 4:53,0.4,5,0.4,15,1.5,3
2013/6/26 4:54,0.5,5,0.5,15,1.8,3
2013/6/26 4:55,0.6,5,0.6,15,1.6,2
2013/6/26 4:56,0.7,4,0.7,4,1.6,2
2013/6/26 4:57,0.7,3,0.7,4,1.1,1
2013/6/26 4:58,0.8,3,0.8,3,1.1,16
2013/6/26 4:59,0.8,2,0.8,3,1.3,15
2013/6/26 5:00,0.9,2,0.9,2,1.3,2
2013/6/26 5:01,0.8,1,0.9,2,1.3,1
2013/6/26 5:02,0.8,1,0.8,2,1.6,1
2013/6/26 5:03,0.8,1,0.8,2,1.5,15
2013/6/26 5:04,0.8,1,0.8,2,1.1,16
2013/6/26 5:05,0.8,1,0.8,2,1.3,1
2013/6/26 5:06,0.8,1,0.8,2,1.5,2
2013/6/26 5:07,0.8,1,0.8,2,2,2
2013/6/26 5:08,0.9,1,0.9,2,2,2
2013/6/26 5:09,0.9,1,0.9,2,2.6,1
2013/6/26 5:10,1,1,1,1,2,2
2013/6/26 5:11,1.1,1,1.1,1,2.7,3
2013/6/26 5:12,1.1,1,1.1,1,2.5,2
2013/6/26 5:13,1.2,2,1.2,1,1.8,2
2013/6/26 5:14,1.2,2,1.2,1,2.1,1
2013/6/26 5:15,1.3,2,1.3,2,2.2,1
2013/6/26 5:16,1.3,2,1.3,2,2.5,3
2013/6/26 5:17,1.3,2,1.3,2,2.2,1
2013/6/26 5:18,1.3,2,1.4,2,1.5,1
2013/6/26 5:19,1.4,2,1.4,2,2.4,3
2013/6/26 5:20,1.3,2,1.4,2,2.1,3
2013/6/26 5:21,1.2,2,1.3,2,2.2,16
2013/6/26 5:22,1.3,2,1.3,2,3.2,3
2013/6/26 5:23,1.4,2,1.4,2,4.4,3
2013/6/26 5:24,1.6,2,1.6,2,4.1,2
2013/6/26 5:25,1.6,2,1.6,2,3.1,3
2013/6/26 5:26,1.7,2,1.7,2,3.9,3
2013/6/26 5:27,1.9,2,1.9,2,3.3,3
2013/6/26 5:28,1.9,2,1.9,2,3,3
2013/6/26 5:29,1.9,2,1.9,2,2.1,1
2013/6/26 5:30,2,2,2,2,3.2,2
2013/6/26 5:31,2,2,2,2,3.2,1
2013/6/26 5:32,2,2,2,2,3.2,2
2013/6/26 5:33,2,2,2,2,3.1,1
2013/6/26 5:34,1.9,2,1.9,2,3.3,2
2013/6/26 5:35,1.9,2,1.9,2,3.7,2
2013/6/26 5:36,1.8,2,1.9,2,4.2,1
2013/6/26 5:37,1.8,2,1.8,2,3.5,2
2013/6/26 5:38,1.9,2,1.9,2,4.4,1
2013/6/26 5:39,1.9,2,1.9,2,3.2,2
2013/6/26 5:40,2,2,2,2,3.6,3
2013/6/26 5:41,2.1,2,2.1,2,3.5,3
2013/6/26 5:42,2.1,2,2.1,2,3.3,2
2013/6/26 5:43,2.1,2,2.1,2,2.9,16
2013/6/26 5:44,2.1,2,2.1,2,3.1,1
2013/6/26 5:45,2.1,2,2.1,2,2.7,2
2013/6/26 5:46,2.1,2,2.1,2,2.5,3
2013/6/26 5:47,2,2,2.1,2,3.8,2
2013/6/26 5:48,2,2,2.1,2,3.8,2
2013/6/26 5:49,2,2,2,2,2.7,2
2013/6/26 5:50,2,2,2,2,3.3,4
2013/6/26 5:51,2,2,2,2,5.1,3
2013/6/26 5:52,2.1,2,2.1,2,4.2,3
2013/6/26 5:53,2.2,2,2.2,2,3.9,3
2013/6/26 5:54,2.3,2,2.3,2,4.8,3
2013/6/26 5:55,2.5,2,2.5,2,4.1,2
2013/6/26 5:56,2.6,3,2.6,3,3.9,4
2013/6/26 5:57,2.6,3,2.6,3,3.5,3
2013/6/26 5:58,2.8,3,2.8,3,3.2,3
2013/6/26 5:59,2.7,3,2.8,3,2.6,3
2013/6/26 6:00,2.6,3,2.7,3,1.9,3
2013/6/26 6:01,2.4,3,2.6,3,1.3,3
2013/6/26 6:02,2.3,4,2.4,3,2.4,4
2013/6/26 6:03,2.1,4,2.2,3,1.3,5
2013/6/26 6:04,1.8,4,2.1,3,1.3,5
2013/6/26 6:05,1.6,4,1.8,3,1.4,4
2013/6/26 6:06,1.4,4,1.5,3,1.8,3
2013/6/26 6:07,1.3,4,1.4,3,3,3
2013/6/26 6:08,1.3,4,1.3,3,3.7,4
2013/6/26 6:09,1.5,4,1.5,3,4.8,3
2013/6/26 6:10,1.7,4,1.7,3,4.8,3
2013/6/26 6:11,2,4,2,3,5.1,3
2013/6/26 6:12,2.2,4,2.2,4,5.2,4
2013/6/26 6:13,2.4,4,2.4,4,5.1,4
2013/6/26 6:14,2.6,3,2.6,3,4.1,3
2013/6/26 6:15,2.8,3,2.8,3,4.4,2
2013/6/26 6:16,3,3,3,3,6.4,3
2013/6/26 6:17,3.3,3,3.3,3,6.1,3
2013/6/26 6:18,3.3,3,3.3,3,4.7,3
2013/6/26 6:19,3.3,3,3.3,3,4.9,3
2013/6/26 6:20,3.2,3,3.3,3,3.8,3
2013/6/26 6:21,3.2,3,3.2,3,5.1,4
2013/6/26 6:22,3.2,3,3.2,3,4.4,3
2013/6/26 6:23,3.2,3,3.2,3,4.4,3
2013/6/26 6:24,3.3,3,3.3,3,4.8,5
2013/6/26 6:25,3.2,3,3.3,3,3.8,4
2013/6/26 6:26,3.1,3,3.2,3,3.5,4
2013/6/26 6:27,2.9,3,3.1,3,3.3,3
2013/6/26 6:28,2.9,3,3,3,3.2,3
2013/6/26 6:29,2.7,3,2.8,3,3.3,4
2013/6/26 6:30,2.7,3,2.7,3,4.5,3
2013/6/26 6:31,2.8,3,2.8,3,5.6,3
2013/6/26 6:32,2.9,3,2.9,3,5.7,3
2013/6/26 6:33,2.8,3,2.9,3,3.8,2
2013/6/26 6:34,2.7,3,2.8,3,4.7,3
2013/6/26 6:35,2.9,3,2.9,3,5.1,3
2013/6/26 6:36,2.9,3,2.9,3,5.4,4
2013/6/26 6:37,3.1,3,3.1,3,5,3
2013/6/26 6:38,3.1,3,3.1,3,4.7,3
2013/6/26 6:39,3.2,3,3.2,3,5.6,3
2013/6/26 6:40,3.3,2,3.3,3,5.6,3
2013/6/26 6:41,3.2,2,3.3,3,4.5,1
2013/6/26 6:42,2.9,2,3.1,3,4.5,3
2013/6/26 6:43,3,2,3,3,4.7,3
2013/6/26 6:44,3,2,3,3,3.6,2
2013/6/26 6:45,2.9,2,3,3,4.8,3
2013/6/26 6:46,3,2,3,3,4.7,3
2013/6/26 6:47,2.8,2,3,3,3.7,2
2013/6/26 6:48,2.7,2,2.8,3,3.2,2
2013/6/26 6:49,2.7,2,2.7,3,3.9,3
2013/6/26 6:50,2.5,2,2.6,2,2.6,3
2013/6/26 6:51,2.3,2,2.4,2,2.5,2
2013/6/26 6:52,2.3,2,2.3,2,2.5,3
2013/6/26 6:53,2.3,2,2.3,2,3.9,2
2013/6/26 6:54,2.2,2,2.3,2,3.6,2
2013/6/26 6:55,2.2,2,2.2,2,3.8,2
2013/6/26 6:56,2,2,2.1,2,3.2,3
2013/6/26 6:57,2.1,2,2.1,2,4.2,2
2013/6/26 6:58,2.1,2,2.1,2,3.3,1
2013/6/26 6:59,2,2,2.1,2,3.8,2
2013/6/26 7:00,2.1,2,2.1,2,3.8,2
2013/6/26 7:01,2.2,2,2.2,2,3.1,2
2013/6/26 7:02,2.3,2,2.3,2,4.7,3
2013/6/26 7:03,2.2,2,2.3,2,4.3,2
2013/6/26 7:04,2.2,2,2.3,2,4.3,3
2013/6/26 7:05,2.3,2,2.3,2,4.4,2
2013/6/26 7:06,2.5,2,2.5,2,4.7,2
2013/6/26 7:07,2.4,2,2.5,2,4.3,2
2013/6/26 7:08,2.4,2,2.4,2,3.3,2
2013/6/26 7:09,2.3,2,2.4,2,2.4,4
2013/6/26 7:10,2.2,2,2.3,2,2.5,1
2013/6/26 7:11,2.2,2,2.3,2,3.2,3
2013/6/26 7:12,2.2,2,2.2,2,4.1,1
2013/6/26 7:13,2.2,2,2.2,2,3.3,1
2013/6/26 7:14,2.2,2,2.2,2,3.3,1
2013/6/26 7:15,2.1,2,2.2,2,2.2,1
2013/6/26 7:16,1.9,2,2.1,2,2.2,1
2013/6/26 7:17,1.7,2,1.8,2,1.8,2
2013/6/26 7:18,1.7,2,1.7,2,2.6,3
2013/6/26 7:19,1.7,2,1.7,2,3.1,2
2013/6/26 7:20,1.7,2,1.8,2,2.7,2
2013/6/26 7:21,1.8,2,1.8,2,3,3
2013/6/26 7:22,1.6,2,1.8,2,1.6,3
2013/6/26 7:23,1.5,2,1.6,2,1.5,2
2013/6/26 7:24,1.4,2,1.5,2,2,1
2013/6/26 7:25,1.3,2,1.4,2,2.2,2
2013/6/26 7:26,1.4,2,1.4,2,3.5,2
2013/6/26 7:27,1.5,2,1.5,2,3.1,2
2013/6/26 7:28,1.6,2,1.6,2,2.9,2
2013/6/26 7:29,1.5,2,1.6,2,3.2,2
2013/6/26 7:30,1.6,2,1.6,2,3,1
2013/6/26 7:31,1.6,2,1.6,2,3.2,3
2013/6/26 7:32,1.7,2,1.7,2,2.7,1
2013/6/26 7:33,1.8,2,1.8,2,3.1,2
2013/6/26 7:34,1.9,2,1.9,2,2.6,3
2013/6/26 7:35,1.9,2,1.9,2,3.2,2
2013/6/26 7:36,1.9,2,1.9,2,2.7,2
2013/6/26 7:37,2,2,2,2,3.5,3
2013/6/26 7:38,2,2,2,2,3.6,3
2013/6/26 7:39,2,2,2,2,2.7,3
2013/6/26 7:40,2.1,2,2.1,2,3.9,3
2013/6/26 7:41,2.2,2,2.2,2,4.2,3
2013/6/26 7:42,2.3,2,2.3,2,4.7,3
2013/6/26 7:43,2.4,2,2.4,2,4.1,3
2013/6/26 7:44,2.5,3,2.5,2,4.3,3
2013/6/26 7:45,2.6,3,2.6,3,4.2,3
2013/6/26 7:46,2.8,3,2.8,3,5.1,2
2013/6/26 7:47,2.9,3,2.9,3,4.9,2
2013/6/26 7:48,3,3,3,3,5,3
2013/6/26 7:49,2.9,3,3,3,3.2,3
2013/6/26 7:50,3,3,3,3,4.5,4
2013/6/26 7:51,2.8,3,3,3,3.8,4
2013/6/26 7:52,2.8,3,2.9,3,3.5,2
2013/6/26 7:53,2.8,3,2.8,3,3.9,3
2013/6/26 7:54,2.7,3,2.8,3,3.7,3
2013/6/26 7:55,2.6,2,2.7,3,3.5,3
2013/6/26 7:56,2.4,2,2.5,3,2,2
2013/6/26 7:57,2.1,2,2.4,3,1.9,16
2013/6/26 7:58,2,2,2.1,3,3.3,2
2013/6/26 7:59,2.1,2,2.1,3,4.1,2
2013/6/26 8:00,2,2,2.1,3,3.5,2
2013/6/26 8:01,2.1,2,2.1,3,3.7,3
2013/6/26 8:02,2,2,2.1,3,2.7,2
2013/6/26 8:03,1.9,2,2,3,2.7,3
2013/6/26 8:04,1.7,2,1.9,3,1.9,3
2013/6/26 8:05,1.7,2,1.7,2,1.8,3
2013/6/26 8:06,1.7,2,1.7,2,2.4,2
2013/6/26 8:07,1.7,2,1.7,2,2.2,3
2013/6/26 8:08,1.7,2,1.7,2,2.4,3
2013/6/26 8:09,1.6,2,1.7,2,2.7,3
2013/6/26 8:10,1.7,2,1.7,2,3.6,3
2013/6/26 8:11,1.6,2,1.7,2,2.4,3
2013/6/26 8:12,1.5,2,1.6,2,2,16
2013/6/26 8:13,1.5,2,1.5,2,1.6,1
2013/6/26 8:14,1.5,2,1.5,2,2.1,2
2013/6/26 8:15,1.5,2,1.5,2,2.7,1
2013/6/26 8:16,1.6,2,1.6,2,3.3,2
2013/6/26 8:17,1.6,2,1.6,2,3.5,2
2013/6/26 8:18,1.6,2,1.6,2,2.7,1
2013/6/26 8:19,1.6,2,1.6,2,3.3,16
2013/6/26 8:20,1.5,1,1.6,2,2.2,1
2013/6/26 8:21,1.5,1,1.5,2,2.5,1
2013/6/26 8:22,1.5,1,1.5,2,2.5,2
2013/6/26 8:23,1.6,1,1.6,2,2.5,1
2013/6/26 8:24,1.7,1,1.7,1,2.7,2
2013/6/26 8:25,1.7,1,1.7,1,2.2,16
2013/6/26 8:26,1.6,1,1.7,1,2.1,16
2013/6/26 8:27,1.5,1,1.6,1,1.8,16
2013/6/26 8:28,1.3,1,1.5,1,1,2
2013/6/26 8:29,1.2,1,1.3,1,1.3,3
2013/6/26 8:30,1.2,1,1.2,1,1.8,1
2013/6/26 8:31,1.2,1,1.2,1,2.2,2
2013/6/26 8:32,1.1,1,1.2,1,1.9,2
2013/6/26 8:33,1,1,1.1,1,1.6,2
2013/6/26 8:34,0.9,1,1,1,1.3,16
2013/6/26 8:35,0.8,1,0.9,1,1.4,16
2013/6/26 8:36,0.9,1,0.9,1,2.2,2
2013/6/26 8:37,1,2,1,1,2.5,2
2013/6/26 8:38,1,2,1.1,1,1.9,3
2013/6/26 8:39,1.1,2,1.1,1,1.5,2
2013/6/26 8:40,1,2,1.1,1,1.4,1
2013/6/26 8:41,1,1,1.1,1,1,1
2013/6/26 8:42,1,1,1,1,1.3,2
2013/6/26 8:43,0.9,1,1,2,1.3,16
2013/6/26 8:44,0.9,1,0.9,2,0.8,16
2013/6/26 8:45,0.9,1,0.9,2,1.3,16
2013/6/26 8:46,0.8,1,0.9,2,0.8,16
2013/6/26 8:47,0.7,1,0.8,2,1.9,16
2013/6/26 8:48,0.8,1,0.8,2,2.4,16
2013/6/26 8:49,0.9,16,0.9,2,2.2,16
2013/6/26 8:50,1,16,1,2,2.5,16
2013/6/26 8:51,1.1,16,1.1,16,2.2,1
2013/6/26 8:52,1.2,16,1.2,16,3.2,16
2013/6/26 8:53,1.4,16,1.4,16,3.5,16
2013/6/26 8:54,1.6,16,1.6,16,3.3,16
2013/6/26 8:55,1.8,16,1.8,16,3,16
2013/6/26 8:56,1.9,16,1.9,16,2.7,16
2013/6/26 8:57,2,16,2,16,3,16
2013/6/26 8:58,2,16,2,16,3.5,16
2013/6/26 8:59,2.1,16,2.1,16,3.6,16
2013/6/26 9:00,2.2,16,2.2,16,3.5,15
2013/6/26 9:01,2.2,16,2.2,16,3.3,16
2013/6/26 9:02,2.2,16,2.2,16,2.6,16
2013/6/26 9:03,2.1,16,2.2,16,2.5,15
2013/6/26 9:04,2,16,2.1,16,2.4,15
2013/6/26 9:05,1.9,16,2,16,1.6,16
2013/6/26 9:06,1.9,16,1.9,16,2.1,15
2013/6/26 9:07,1.8,16,1.9,16,1.8,16
2013/6/26 9:08,1.7,16,1.8,16,1.9,16
2013/6/26 9:09,1.5,16,1.7,16,1.5,16
2013/6/26 9:10,1.3,16,1.5,16,0.6,16
2013/6/26 9:11,1.2,16,1.3,16,1.4,1
2013/6/26 9:12,1.1,16,1.2,16,1.5,16
2013/6/26 9:13,1,16,1.1,16,1.4,16
2013/6/26 9:14,0.9,16,1,16,0.6,15
2013/6/26 9:15,0.8,16,0.9,16,0.6,14
2013/6/26 9:16,0.8,16,0.8,16,1.3,15
2013/6/26 9:17,0.7,16,0.8,16,1.3,16
2013/6/26 9:18,0.7,16,0.7,16,1.3,16
2013/6/26 9:19,0.6,16,0.7,16,1.4,15
2013/6/26 9:20,0.7,16,0.7,16,1.5,15
2013/6/26 9:21,0.8,16,0.8,16,1.8,16
2013/6/26 9:22,0.8,16,0.8,16,2,16
2013/6/26 9:23,0.9,15,0.9,16,2.1,16
2013/6/26 9:24,1.1,16,1.1,16,2.6,16
2013/6/26 9:25,1.2,16,1.2,16,2.5,15
2013/6/26 9:26,1.3,16,1.3,16,1.9,16
2013/6/26 9:27,1.3,16,1.3,16,2,15
2013/6/26 9:28,1.4,16,1.4,16,2.5,16
2013/6/26 9:29,1.5,16,1.5,16,1.9,16
2013/6/26 9:30,1.6,16,1.6,16,3.3,16
2013/6/26 9:31,1.6,16,1.6,16,3.6,16
2013/6/26 9:32,1.7,16,1.7,16,2.9,15
2013/6/26 9:33,1.7,16,1.7,16,2.9,16
2013/6/26 9:34,1.7,16,1.7,16,3,16
2013/6/26 9:35,1.7,16,1.7,16,3.2,16
2013/6/26 9:36,1.8,16,1.8,16,3,1
2013/6/26 9:37,1.9,16,1.9,16,2.7,16
2013/6/26 9:38,1.9,16,1.9,16,2.5,15
2013/6/26 9:39,2,16,2,16,2.6,15
2013/6/26 9:40,1.9,16,2,16,2.2,15
2013/6/26 9:41,1.8,16,1.9,16,1.5,1
2013/6/26 9:42,1.8,16,1.8,16,2,16
2013/6/26 9:43,1.7,16,1.8,16,1.9,16
2013/6/26 9:44,1.6,16,1.7,16,1,1
2013/6/26 9:45,1.5,16,1.6,16,1.6,15
2013/6/26 9:46,1.3,16,1.4,16,1.5,14
2013/6/26 9:47,1.2,15,1.3,16,1.6,15
2013/6/26 9:48,1.1,15,1.2,16,1.4,15
2013/6/26 9:49,1,15,1.1,16,0.9,15
2013/6/26 9:50,0.9,15,1,16,0.8,12
2013/6/26 9:51,0.8,14,0.9,16,1.3,9
2013/6/26 9:52,0.8,14,0.8,16,1.6,9
2013/6/26 9:53,0.7,13,0.8,16,1.4,9
2013/6/26 9:54,0.7,12,0.7,16,0.8,10
2013/6/26 9:55,0.7,12,0.7,16,0.9,12
2013/6/26 9:56,0.6,12,0.7,16,0.9,12
2013/6/26 9:57,0.6,11,0.6,15,0.8,12
2013/6/26 9:58,0.6,11,0.6,15,1.4,13
2013/6/26 9:59,0.6,11,0.6,15,1.6,12
2013/6/26 10:00,0.8,11,0.8,15,2.1,12
2013/6/26 10:01,0.9,11,0.9,11,1.9,12
2013/6/26 10:02,0.9,11,0.9,11,2.2,11
2013/6/26 10:03,1.1,12,1.1,12,2.6,10
2013/6/26 10:04,1.2,12,1.2,12,2.2,10
2013/6/26 10:05,1.4,12,1.4,12,2.6,11
2013/6/26 10:06,1.5,12,1.5,12,2.4,11
2013/6/26 10:07,1.7,11,1.7,11,2.5,11
2013/6/26 10:08,1.8,12,1.8,12,2.2,12
2013/6/26 10:09,1.8,12,1.8,12,2.4,13
2013/6/26 10:10,1.8,12,1.8,12,2.2,12
2013/6/26 10:11,1.9,12,1.9,12,2.2,12
2013/6/26 10:12,1.9,12,1.9,12,2.6,12
2013/6/26 10:13,1.9,12,1.9,12,2.9,12
2013/6/26 10:14,1.8,12,1.9,12,1.8,10
2013/6/26 10:15,1.7,12,1.8,12,2,10
2013/6/26 10:16,1.7,12,1.7,12,2,12
2013/6/26 10:17,1.5,12,1.7,12,1.6,11
2013/6/26 10:18,1.5,12,1.5,12,1.6,11
2013/6/26 10:19,1.4,12,1.4,12,2,12
2013/6/26 10:20,1.3,12,1.4,12,1.9,12
2013/6/26 10:21,1.2,12,1.3,12,1.5,13
2013/6/26 10:22,1.1,11,1.2,12,1.9,12
2013/6/26 10:23,1,11,1.1,12,1.4,12
2013/6/26 10:24,0.9,11,1,12,1.5,12
2013/6/26 10:25,0.9,11,0.9,12,1.1,8
2013/6/26 10:26,0.8,11,0.9,12,1.5,10
2013/6/26 10:27,0.9,11,0.9,12,1.9,10
2013/6/26 10:28,1,11,1,12,2,10
2013/6/26 10:29,1,11,1,12,2.1,11
2013/6/26 10:30,1.1,11,1.1,12,2.5,10
2013/6/26 10:31,1.2,11,1.2,12,2.1,11
2013/6/26 10:32,1.3,11,1.3,11,2.5,11
2013/6/26 10:33,1.5,11,1.5,11,2.5,11
2013/6/26 10:34,1.6,11,1.6,11,2,10
2013/6/26 10:35,1.6,11,1.6,11,2.6,9
2013/6/26 10:36,1.6,10,1.7,10,2,9
2013/6/26 10:37,1.6,10,1.6,10,1.8,10
2013/6/26 10:38,1.6,10,1.6,10,1.9,10
2013/6/26 10:39,1.5,10,1.5,10,1.6,10
2013/6/26 10:40,1.3,10,1.5,10,1.5,10
2013/6/26 10:41,1.2,10,1.3,10,1.1,9
2013/6/26 10:42,1,10,1.2,10,1.3,8
2013/6/26 10:43,1,9,1,10,1.9,8
2013/6/26 10:44,0.9,9,1,10,1.9,9
2013/6/26 10:45,0.9,9,0.9,10,1.5,8
2013/6/26 10:46,1,9,1,10,2,8
2013/6/26 10:47,0.9,8,1,10,1.5,7
2013/6/26 10:48,1,8,1,10,2.1,7
2013/6/26 10:49,1,8,1,10,2.2,6
2013/6/26 10:50,1.1,8,1.1,10,1.8,8
2013/6/26 10:51,1.2,8,1.2,10,2.1,8
2013/6/26 10:52,1.3,8,1.3,8,1.8,6
2013/6/26 10:53,1.2,7,1.2,8,1.8,5
2013/6/26 10:54,1.2,7,1.2,8,1.6,4
2013/6/26 10:55,1.2,7,1.2,8,2.5,5
2013/6/26 10:56,1.3,6,1.3,8,2.7,5
2013/6/26 10:57,1.4,6,1.4,6,3.2,5
2013/6/26 10:58,1.5,6,1.5,6,3.1,4
2013/6/26 10:59,1.5,5,1.5,6,3,5
2013/6/26 11:00,1.7,5,1.7,5,3,5
2013/6/26 11:01,1.7,5,1.7,5,3.2,5
2013/6/26 11:02,1.7,5,1.7,5,2,4
2013/6/26 11:03,1.7,5,1.7,5,1.5,4
2013/6/26 11:04,1.7,5,1.7,5,1.4,3
2013/6/26 11:05,1.6,4,1.7,5,0.6,9
2013/6/26 11:06,1.4,4,1.6,5,0.9,1
2013/6/26 11:07,1.2,4,1.4,5,1.5,1
2013/6/26 11:08,1.1,4,1.2,5,1.3,1
2013/6/26 11:09,1,3,1.1,5,1.1,2
2013/6/26 11:10,0.8,2,1,5,0.8,16
2013/6/26 11:11,0.7,2,0.8,5,1.1,15
2013/6/26 11:12,0.7,1,0.7,5,1.6,16
2013/6/26 11:13,0.7,1,0.7,5,1.4,15
2013/6/26 11:14,0.6,16,0.7,5,0.8,1
2013/6/26 11:15,0.6,16,0.6,4,0.1,15
2013/6/26 11:16,0.6,16,0.6,4,0.6,14
2013/6/26 11:17,0.6,16,0.6,4,0.9,14
2013/6/26 11:18,0.5,16,0.6,4,0.6,13
2013/6/26 11:19,0.4,15,0.5,3,0,14
2013/6/26 11:20,0.4,15,0.4,2,0.9,12
2013/6/26 11:21,0.4,15,0.4,2,1,11
2013/6/26 11:22,0.4,14,0.4,1,1.3,10
2013/6/26 11:23,0.4,13,0.4,1,1.5,10
2013/6/26 11:24,0.5,12,0.5,16,1.5,10
2013/6/26 11:25,0.5,12,0.5,16,1.3,9
2013/6/26 11:26,0.5,11,0.5,16,1.5,10
2013/6/26 11:27,0.7,11,0.7,11,1.9,10
2013/6/26 11:28,0.8,11,0.8,11,1.9,10
2013/6/26 11:29,0.9,11,0.9,11,2.2,10
2013/6/26 11:30,1.1,10,1.1,10,2.2,10
2013/6/26 11:31,1.1,10,1.1,10,2.2,10
2013/6/26 11:32,1.2,10,1.2,10,2,10
2013/6/26 11:33,1.2,10,1.2,10,2,10
2013/6/26 11:34,1.3,10,1.3,10,2.1,9
2013/6/26 11:35,1.3,10,1.3,10,1.9,11
2013/6/26 11:36,1.4,10,1.4,10,1.9,11
2013/6/26 11:37,1.2,10,1.4,10,0.8,11
2013/6/26 11:38,1.1,10,1.2,10,0.1,4